Change the Weather History Date:

Monday, October 13, 2014

  Actual Average Record
Temperature  
Mean Temperature 52 °F 45 °F  
Max Temperature 66 °F 56 °F 82 °F (1956)
Min Temperature 38 °F 33 °F 14 °F (1979)
Degree Days  
Heating Degree Days 13 20  
Month to date heating degree days 238 230  
Since 1 July heating degree days 484 581  
Cooling Degree Days 0 0  
Month to date cooling degree days 0 0  
Year to date cooling degree days 395 378  
Growing Degree Days 2 (Base 50)    
Moisture  
Dew Point 44 °F    
Average Humidity 71    
Maximum Humidity 100    
Minimum Humidity 42    
Precipitation  
Precipitation 0.00 in 0.07 in 0.44 in (1966)
Month to date precipitation 0.32 0.90  
Year to date precipitation 22.29 18.18  
Snow  
Snow 0.00 in 0.00 in 0.50 in (1992)
Month to date snowfall 0.0 0.3  
Since 1 July snowfall 0.0 0.3  
Since 1 September snowfall 0.0 0.3  
Snow Depth 0.00 in    
Sea Level Pressure  
Sea Level Pressure 29.83 in    
Wind  
Wind Speed 5 mph (NW)    
Max Wind Speed 14 mph    
Max Gust Speed 18 mph    
Visibility 6 miles    
Events      
T = Trace of Precipitation, MM = Missing Value Source: NWS Daily Summary

Daily Weather History Graph

Daily Weather History Graph

Search for Another Location

Airport or City:

Trip Planner

Search our weather history database for the weather conditions in past years. The results will help you decide how hot, cold, wet, or windy it might be!

Date:

Astronomy

Oct. 13, 2014 Rise Set
Actual Time 7:45 AM CDT 6:43 PM CDT
Civil Twilight 7:13 AM CDT 7:15 PM CDT
Nautical Twilight 6:37 AM CDT 7:50 PM CDT
Astronomical Twilight 6:01 AM CDT 8:26 PM CDT
Moon 10:41 PM CDT (10/13) 1:14 PM CDT (10/13)
Length of Visible Light 12h 01m
Length of Day
10h 58m
Waning Gibbous, 70% of the Moon is Illuminated
Oct 13
Waning Gibbous
Oct 15
Last Quarter
Oct 23
New
Oct 30
First Quarter
Nov 6
Full

Hourly Weather History & Observations

Time (CDT) Temp. Windchill Dew Point Humidity Pressure Visibility Wind Dir Wind Speed Gust Speed Precip Events Conditions
12:53 AM 48.9 °F - 48.0 °F 97% 29.74 in 6.0 mi Calm Calm - 0.01 in   Overcast
1:39 AM 48.2 °F - 46.4 °F 93% 29.74 in 1.8 mi Calm Calm - N/A   Overcast
1:53 AM 48.0 °F - 46.9 °F 96% 29.75 in 3.0 mi Calm Calm - N/A   Overcast
1:57 AM 48.2 °F - 46.4 °F 93% 29.74 in 1.8 mi West 3.5 mph - N/A   Overcast
2:15 AM 48.2 °F - 46.4 °F 93% 29.74 in 3.0 mi West 4.6 mph - N/A   Overcast
2:53 AM 48.0 °F - 46.9 °F 96% 29.76 in 5.0 mi Calm Calm - N/A   Overcast
2:59 AM 48.2 °F - 46.4 °F 93% 29.76 in 2.5 mi WNW 4.6 mph - N/A   Overcast
3:05 AM 48.2 °F - 46.4 °F 93% 29.75 in 1.0 mi Calm Calm - N/A   Overcast
3:13 AM 48.2 °F - 46.4 °F 93% 29.75 in 0.8 mi Calm Calm - N/A   Overcast
3:26 AM 48.2 °F - 46.4 °F 93% 29.76 in 1.5 mi Calm Calm - N/A   Mostly Cloudy
3:32 AM 48.2 °F - 46.4 °F 93% 29.76 in 2.0 mi Calm Calm - N/A   Scattered Clouds
3:42 AM 48.2 °F - 46.4 °F 93% 29.76 in 1.5 mi Calm Calm - N/A   Partly Cloudy
3:53 AM 46.9 °F - 46.0 °F 97% 29.77 in 1.0 mi Calm Calm - N/A   Mist
4:04 AM 46.4 °F 44.3 °F 46.4 °F 100% 29.76 in 1.2 mi WNW 4.6 mph - N/A   Partly Cloudy
4:27 AM 46.4 °F 45.2 °F 46.4 °F 100% 29.77 in 2.0 mi NW 3.5 mph - N/A   Clear
4:38 AM 46.4 °F 45.2 °F 46.4 °F 100% 29.77 in 1.8 mi WNW 3.5 mph - N/A   Clear
4:53 AM 46.0 °F - 45.0 °F 96% 29.79 in 1.5 mi Calm Calm - N/A   Clear
5:09 AM 44.6 °F 43.1 °F 44.6 °F 100% 29.78 in 0.8 mi NW 3.5 mph - N/A   Clear
5:15 AM 46.4 °F 43.5 °F 44.6 °F 93% 29.78 in 2.0 mi NW 5.8 mph - N/A   Clear
5:23 AM 44.6 °F 41.4 °F 44.6 °F 100% 29.78 in 10.0 mi NW 5.8 mph - N/A   Clear
5:53 AM 45.0 °F 43.5 °F 44.1 °F 97% 29.81 in 10.0 mi NW 3.5 mph - N/A   Mostly Cloudy
6:53 AM 43.0 °F 39.5 °F 39.9 °F 89% 29.84 in 10.0 mi WNW 5.8 mph - N/A   Partly Cloudy
7:53 AM 39.9 °F 35.8 °F 37.9 °F 93% 29.87 in 10.0 mi West 5.8 mph - N/A   Overcast
8:53 AM 44.1 °F 40.8 °F 41.0 °F 89% 29.88 in 10.0 mi West 5.8 mph - N/A   Mostly Cloudy
9:53 AM 46.9 °F - 42.1 °F 83% 29.88 in 10.0 mi NW 4.6 mph - N/A   Mostly Cloudy
10:53 AM 52.0 °F - 43.0 °F 71% 29.90 in 10.0 mi NNW 9.2 mph - N/A   Mostly Cloudy
11:53 AM 55.9 °F - 43.0 °F 62% 29.91 in 10.0 mi NNW 10.4 mph - N/A   Scattered Clouds
12:53 PM 59.0 °F - 44.6 °F 59% 29.91 in 10.0 mi NW 10.4 mph - N/A   Partly Cloudy
1:53 PM 62.1 °F - 43.0 °F 50% 29.91 in 10.0 mi NNW 10.4 mph - N/A   Partly Cloudy
2:53 PM 64.4 °F - 44.6 °F 49% 29.88 in 10.0 mi NNW 5.8 mph - N/A   Partly Cloudy
3:53 PM 66.0 °F - 43.0 °F 43% 29.89 in 10.0 mi North 5.8 mph - N/A   Partly Cloudy
4:53 PM 66.0 °F - 43.0 °F 43% 29.91 in 10.0 mi North 8.1 mph - N/A   Partly Cloudy
5:53 PM 62.1 °F - 44.1 °F 52% 29.92 in 10.0 mi North 6.9 mph - N/A   Partly Cloudy
6:53 PM 54.0 °F - 42.1 °F 64% 29.93 in 10.0 mi North 3.5 mph - N/A   Partly Cloudy
7:53 PM 46.9 °F - 39.9 °F 77% 29.94 in 10.0 mi Calm Calm - N/A   Clear
8:53 PM 45.0 °F 43.5 °F 39.9 °F 82% 29.94 in 10.0 mi West 3.5 mph - N/A   Clear
9:53 PM 42.8 °F 40.1 °F 37.4 °F 81% 29.93 in 10.0 mi West 4.6 mph - N/A   Clear
10:53 PM 41.0 °F 39.0 °F 37.0 °F 86% 29.95 in 10.0 mi West 3.5 mph - N/A   Clear
11:53 PM 39.9 °F 33.9 °F 36.0 °F 86% 29.96 in 10.0 mi West 9.2 mph - N/A   Clear